Regional Weather Roundup
Issued by NWS

Home | Current Version | Previous Version | Graphics & Text | Print | Product List | Glossary On
Versions: 1 2 3 4 5 6 7 8 9 10 11 12 13 14 15 16 17 18 19 20 21 22 23 24 25 26 27 28 29 30 31 32 33 34 35 36 37 38 39 40 41 42 43 44 45 46 47 48 49 50
000
ASUS43 KFSD 272102
RWRSD

WEATHER ROUNDUP FOR SOUTH DAKOTA
NATIONAL WEATHER SERVICE SIOUX FALLS SD
300 PM CST TUE JAN 27 2015

NOTE: "FAIR" INDICATES FEW OR NO CLOUDS BELOW 12,000 FEET WITH NO
SIGNIFICANT WEATHER AND/OR OBSTRUCTIONS TO VISIBILITY.


SDZ001>005-009-010-012>017-272200-
NORTHWEST AND NORTH CENTRAL SOUTH DAKOTA

CITY           SKY/WX    TMP DP  RH WIND       PRES   REMARKS
BUFFALO          N/A     67  32  27 W14       29.80F
FAITH            N/A     70  27  20 W12       29.85F
MOBRIDGE       SUNNY     51  37  58 SE9       29.82F
$$

SDZ012>016-024>037-041>051-057-063-072>074-272200-
SOUTHWEST AND SOUTH CENTRAL SOUTH DAKOTA

CITY           SKY/WX    TMP DP  RH WIND       PRES   REMARKS
RAPID CTY ARPT SUNNY     72  24  16 SE7       29.88
PIERRE         SUNNY     57  36  45 SE8       29.86F
CUSTER         SUNNY     62  21  20 W23G35    30.00F
ELLSWORTH AFB  SUNNY     73  27  18 SE7       29.88F
PHILIP         SUNNY     72  28  19 VRB3      29.86F
PINE RIDGE     SUNNY     66  32  28 W10       29.93F
WINNER         FAIR      66  33  29 CALM      29.89F
$$

SDZ004>011-016>023-039-040-272200-
NORTHEAST SOUTH DAKOTA

CITY           SKY/WX    TMP DP  RH WIND       PRES   REMARKS
ABERDEEN       MOSUNNY   44  37  76 S20       29.92F
WATERTOWN      MOSUNNY   36  32  85 S17       29.97F
SISSETON         N/A     31  31 100 S20       29.99F WCI  19
$$

SDZ017-020-022-023-036>040-048>070-272200-
SOUTHEAST SOUTH DAKOTA

CITY           SKY/WX    TMP DP  RH WIND       PRES   REMARKS
SIOUX FALLS    CLOUDY    37  32  82 SE10      30.02F
HURON          MOSUNNY   43  37  79 SE17      29.93F
MITCHELL       SUNNY     49  39  68 SE16      29.95F
YANKTON        SUNNY     52  36  54 SE15      29.98F
$$

ABBREVIATIONS USED IN REMARKS
   TC - TEMPERATURE IN CELSIUS
  WCI - WIND CHILL INDEX
   HX - HEAT INDEX
  VSB - VISIBILITY




USA.gov is the U.S. government's official web portal to all federal, state and local government web resources and services.